Tracking 22879 objects as of 21-Apr-2021
HD Live streaming from Space Station
objects crossing your sky now

FLOCK 3K 8

Track FLOCK 3K 8 now!
10-day predictions
FLOCK 3K 8 is classified as:


NORAD ID: 43901
Int'l Code: 2018-111AB
Perigee: 474.7 km
Apogee: 504.8 km
Inclination: 97.2 °
Period: 94.3 minutes
Semi major axis: 6860 km
RCS: Unknown
Launch date: December 27, 2018
Source: United States (US)
Launch site: VOSTOCHNY COSMODROME (VOSTO)
aabbcc
Your satellite tracking list
Your tracking list is empty




NASA's NSSDC Master Catalog

Two Line Element Set (TLE):
1 43901U 18111AB  21111.48059097  .00005344  00000-0  19866-3 0  9996
2 43901  97.2393   8.5713 0021965 129.0027 231.3173 15.27716491129027
Source of the keplerian elements: AFSPC